Temp
8 9 8 8 8 8 8 8 8 8 8 8 8 7 7 7 8 7 7 6 5 6 6 6 7 8 9
7 7 7 7 7 7 7 7 6 7 7 7 7 7 7 7 7 7 7 7 6 6 6 5 6 7 8
6 6 7 6 6 5 5 5 5 6 6 7 6 6 6 6 7 7 7 7 6 6 5 5 5 6 7
6 5 4 4 4 4 4 5 5 6 6 6 6 6 6 6 6 6 7 6 6 6 5 5 5 5 6
5 4 3 4 4 4 4 4 4 4 5 5 6 6 6 6 6 6 6 6 6 5 5 4 4 4 5
4 4 4 4 4 4 4 4 4 4 4 4 5 5 5 5 5 5 5 5 5 5 4 3 4 4 4
2 2 3 4 3 3 3 3 3 3 3 2 3 3 4 5 5 5 5 5 4 4 4 3 3 3 3
3 3 3 3 2 2 2 2 2 2 2 1 2 3 4 4 5 4 4 4 4 4 4 3 3 3 2
4 3 3 3 2 2 1 1 1 1 1 1 2 2 3 4 4 4 4 4 4 3 3 3 2 2 2
3 2 2 2 1 2 2 1 0 1 1 1 1 2 2 3 3 3 3 3 4 4 3 3 2 1 1
1 2 2 2 2 1 1 1 -0 -0 -0 0 0 0 0 1 2 3 2 2 3 3 3 3 2 1 1
1 1 1 1 1 1 0 0 -0 -0 0 -0 -1 -0 -0 0 1 1 2 2 2 2 2 2 2 2 1
1 1 1 0 -0 -0 -0 -1 -1 -1 -0 -0 -1 -1 -1 -1 -0 -0 -1 1 1 2 2 2 2 1 1
-0 -0 -0 -1 -1 -1 -2 -2 -2 -1 -0 -1 -1 -1 -2 -1 -1 -0 -0 -0 -0 0 1 1 1 1 1
-1 -1 -0 -1 -1 -1 -1 -2 -2 -1 -1 -1 -1 -1 -1 -2 -1 -1 -1 -1 -0 -1 -2 -0 0 1 1
-2 -2 -2 -1 -1 -1 -1 -2 -2 -2 -1 -1 -1 -2 -2 -1 -1 -2 -1 -1 -1 -1 -2 -2 -1 0 0
-2 -3 -2 -2 -2 -2 -2 -2 -2 -2 -2 -1 -1 -2 -1 -1 -1 -1 -2 -1 -1 -2 -2 -2 -1 -1 -1
Height
783 781 777 775 772 769 767 764 762 759 757 755 753 752 751 750 749 748 747 747 748 747 747 747 746 744 743
780 777 775 773 769 766 763 761 759 756 753 751 749 746 745 744 743 743 742 742 743 743 743 744 743 743 742
774 773 770 768 765 763 761 757 755 751 749 746 744 743 740 738 737 737 737 736 737 739 739 740 741 742 742
769 768 766 765 763 759 754 752 749 746 744 742 740 738 736 734 732 731 731 732 732 732 734 736 738 740 741
766 764 761 759 758 754 750 747 744 742 737 733 732 731 730 728 727 726 726 726 728 729 730 731 732 736 739
763 759 755 754 752 749 746 743 739 738 734 730 728 725 723 722 722 721 720 721 723 724 726 728 729 730 734
757 755 752 750 748 746 743 740 736 733 732 725 725 721 718 717 715 715 715 716 718 720 722 725 727 728 729
750 748 746 744 743 742 739 735 731 728 728 721 719 715 714 712 709 708 708 712 713 715 718 721 723 726 727
744 742 740 738 737 735 732 731 726 723 722 718 713 710 708 705 705 702 702 702 707 711 714 717 720 723 726
740 737 735 733 732 731 728 726 724 720 716 714 710 708 704 699 699 701 699 699 700 704 710 713 716 719 722
736 732 729 727 725 726 724 723 721 717 714 713 708 706 703 700 697 698 699 698 697 698 703 709 713 715 719
731 728 725 723 722 722 720 719 717 713 711 709 706 704 701 699 697 695 696 698 697 697 699 704 709 713 716
727 724 722 721 719 718 716 714 711 708 706 705 701 700 699 697 696 695 695 695 696 697 698 701 705 708 712
724 721 718 717 716 715 713 711 708 704 702 700 698 697 696 695 694 693 693 693 693 695 697 699 702 705 708
720 717 715 714 712 711 709 707 706 702 698 697 696 694 694 692 691 690 690 690 691 693 696 697 700 702 705
716 714 712 710 708 707 706 704 702 700 696 695 693 692 691 687 687 686 687 687 688 690 691 694 696 698 700
712 711 709 707 705 703 702 700 698 696 694 693 692 691 689 686 684 683 684 684 685 686 688 690 692 694 696
Wind_Speed
22 21 27 24 25 25 24 24 23 25 25 25 27 27 26 25 23 20 19 17 15 14 11 9 8 6 3
21 21 21 25 24 26 24 21 23 26 27 27 27 29 26 26 25 23 21 20 18 16 14 10 7 4 1
23 21 20 16 22 24 25 24 25 26 25 25 23 23 25 27 27 25 23 21 19 17 15 11 9 6 3
21 18 21 23 24 24 22 19 21 23 27 27 26 26 28 29 26 25 23 23 21 18 16 13 10 8 7
22 21 19 18 18 20 23 20 23 23 26 21 19 19 19 20 21 26 25 24 23 19 16 14 12 11 9
22 20 20 20 21 22 20 19 8 16 18 19 15 19 24 20 19 21 21 25 24 21 18 16 14 14 12
24 23 22 21 20 21 20 19 21 22 20 22 19 24 24 20 18 20 20 21 22 22 20 18 15 14 14
25 26 24 21 20 23 25 24 25 25 23 14 16 21 21 21 18 20 20 20 22 21 21 20 18 15 15
25 26 25 22 23 22 19 13 10 13 15 20 15 20 22 21 20 19 16 18 19 21 21 21 20 17 15
25 25 24 21 26 22 22 15 11 9 10 12 17 12 6 8 12 16 14 14 15 17 20 21 21 18 16
26 24 22 24 19 20 17 18 16 16 19 17 8 7 6 5 4 7 6 7 11 16 18 22 24 19 16
22 20 19 18 16 18 17 21 24 27 23 19 10 11 8 4 4 4 7 8 8 11 16 20 23 21 15
19 19 16 15 15 20 21 21 21 20 20 17 15 20 20 12 4 7 4 6 10 13 15 19 23 24 20
21 20 14 18 20 20 16 17 19 18 15 12 10 13 17 19 19 13 12 4 7 13 17 19 18 18 24
19 19 20 19 18 17 16 16 15 16 16 19 14 12 15 16 11 17 16 15 15 11 14 15 18 20 20
18 17 18 18 17 17 17 15 14 15 15 17 13 11 10 10 15 17 14 15 15 16 16 14 15 17 18
20 17 18 17 17 17 16 15 15 15 14 15 14 9 5 6 4 9 15 12 13 16 18 16 9 14 16
Wind_Direction
289 288 294 296 297 296 291 286 286 286 283 282 281 282 276 274 273 270 270 271 274 278 279 289 300 302 328
293 294 292 294 300 300 298 299 295 293 286 284 280 281 276 271 270 267 264 266 265 269 270 264 271 281 270
290 291 291 305 311 306 299 297 297 296 288 286 292 292 286 273 267 264 261 257 256 262 266 257 248 233 185
286 299 302 296 292 289 287 290 291 295 297 298 295 294 291 281 270 260 256 253 248 246 254 251 234 224 196
286 285 281 282 279 290 287 289 285 288 291 283 283 287 290 293 286 266 255 249 246 242 238 235 221 213 210
285 283 285 289 281 276 277 285 287 291 286 285 280 279 283 287 279 269 267 248 244 237 231 228 218 206 200
271 276 287 297 303 300 289 281 279 277 285 285 289 284 283 277 276 273 259 244 240 240 231 225 221 210 199
275 272 277 281 281 285 287 286 280 279 276 273 281 270 281 275 266 263 255 244 239 232 230 222 222 216 206
287 282 283 285 279 279 280 294 284 283 274 254 272 276 279 277 266 256 254 235 233 230 225 219 219 215 210
300 295 285 281 301 282 274 270 281 295 297 256 273 260 284 264 248 251 263 239 226 223 218 216 209 203 206
296 291 285 282 287 280 286 277 275 267 284 278 277 280 245 283 256 222 251 239 230 215 207 211 208 201 201
290 291 289 289 292 297 299 295 288 279 293 290 265 265 266 277 261 248 236 231 216 207 202 202 205 206 203
296 292 298 304 302 309 306 302 300 289 284 289 288 280 267 257 263 245 227 242 214 197 193 198 204 200 203
294 290 297 311 307 304 305 310 311 292 284 301 299 294 273 263 259 254 258 234 231 211 209 205 203 210 215
301 296 293 293 292 299 299 308 304 301 302 304 307 304 286 270 259 254 245 240 241 231 210 213 216 212 212
295 300 297 285 287 294 295 293 293 302 304 298 296 296 293 285 252 246 251 244 240 232 213 206 218 221 219
291 291 293 289 287 288 290 285 284 292 292 299 287 258 274 279 271 236 237 234 235 224 225 216 210 220 224